KD5OH Weather Reports


time (UTC)temp
C
wind
direction
speed
KPH
gust
KPH
rain 1hr
cm
rain 24hr
cm
rain mn
cm
humidity
%
barometer
mb
20260510224628 29 147 20.9 37.0 0.00 0.00 0.00 17 1017.2
20260510223125 30 223 17.7 27.4 0.00 0.00 0.00 13 1017.3
20260510221635 31 286 6.4 20.9 0.00 0.00 0.00 9 1017.3
20260510220128 31 270 11.3 24.1 0.00 0.00 0.00 9 1017.4
20260510214639 31 314 9.7 19.3 0.00 0.00 0.00 9 1017.7
20260510213150 31 16 14.5 22.5 0.00 0.00 0.00 9 1017.9
20260510210123 31 311 8.0 19.3 0.00 0.00 0.00 9 1018.0
20260510204634 31 310 6.4 20.9 0.00 0.00 0.00 9 1018.3
20260510203129 31 255 6.4 16.1 0.00 0.00 0.00 9 1018.4
20260510201640 30 310 4.8 22.5 0.00 0.00 0.00 10 1018.6
20260510200135 30 288 8.0 17.7 0.00 0.00 0.00 11 1018.7
20260510194626 29 13 17.7 24.1 0.00 0.00 0.00 11 1018.6
20260510193140 29 344 9.7 14.5 0.00 0.00 0.00 11 1018.6
20260510191631 30 292 4.8 20.9 0.00 0.00 0.00 11 1018.8
20260510190141 29 325 11.3 19.3 0.00 0.00 0.00 12 1018.8
20260510184634 29 355 9.7 20.9 0.00 0.00 0.00 12 1018.8
20260510183123 30 43 8.0 22.5 0.00 0.00 0.00 10 1018.8
20260510181637 30 360 12.9 17.7 0.00 0.00 0.00 10 1019.0
20260510180129 28 85 3.2 6.4 0.00 0.00 0.00 10 1018.8
20260510174700 28 336 3.2 11.3 0.00 0.00 0.00 11 1019.0
20260510173135 28 103 8.0 16.1 0.00 0.00 0.00 11 1018.8
20260510171646 28 128 8.0 14.5 0.00 0.00 0.00 10 1018.9
20260510170135 27 121 9.7 17.7 0.00 0.00 0.00 11 1018.9
20260510164630 27 132 9.7 16.1 0.00 0.00 0.00 13 1018.9
20260510163139 26 143 9.7 17.7 0.00 0.00 0.00 13 1018.6
20260510161634 27 174 8.0 12.9 0.00 0.00 0.00 12 1018.5
20260510160144 26 164 8.0 12.9 0.00 0.00 0.00 12 1018.2
20260510154639 26 184 8.0 12.9 0.00 0.00 0.00 13 1018.0
20260510153128 25 215 6.4 14.5 0.00 0.00 0.00 14 1017.8
20260510151658 24 97 8.0 12.9 0.00 0.00 0.00 15 1017.8
20260510150131 23 94 4.8 9.7 0.00 0.00 0.00 15 1017.9
20260510143134 22 55 4.8 11.3 0.00 0.00 0.00 16 1017.4
20260510141624 22 267 1.6 8.0 0.00 0.00 0.00 16 1017.1
20260510140134 21 299 12.9 20.9 0.00 0.00 0.00 17 1017.0
20260510134630 20 308 11.3 17.7 0.00 0.00 0.00 18 1017.0
20260510133201 19 341 8.0 25.7 0.00 0.00 0.00 20 1017.0
20260510131634 18 23 14.5 20.9 0.00 0.00 0.00 21 1016.4
20260510130124 18 272 6.4 11.3 0.00 0.00 0.00 23 1017.4
20260510124634 17 315 4.8 9.7 0.00 0.00 0.00 23 1016.8
20260510123151 17 1 8.0 12.9 0.00 0.00 0.00 21 1016.3
20260510121701 16 338 6.4 9.7 0.00 0.00 0.00 24 1016.1
20260510120136 16 322 3.2 4.8 0.00 0.00 0.00 24 1015.9
20260510114627 16 359 3.2 6.4 0.00 0.00 0.00 24 1016.0
20260510113121 16 35 3.2 6.4 0.00 0.00 0.00 25 1015.9
20260510111654 16 7 3.2 11.3 0.00 0.00 0.00 25 1015.7
20260510110125 13 335 1.6 4.8 0.00 0.00 0.00 30 1015.3
20260510104640 13 41 3.2 4.8 0.00 0.00 0.00 30 1015.3
20260510103129 13 106 3.2 12.9 0.00 0.00 0.00 30 1014.7
20260510101623 13 230 0.0 3.2 0.00 0.00 0.00 28 1014.5
20260510100133 13 277 0.0 1.6 0.00 0.00 0.00 28 1014.3
20260510094623 14 293 0.0 1.6 0.00 0.00 0.00 27 1014.1
20260510093138 14 293 0.0 1.6 0.00 0.00 0.00 27 1013.9
20260510091629 14 316 0.0 6.4 0.00 0.00 0.00 27 1013.8
20260510090123 15 341 3.2 6.4 0.00 0.00 0.00 26 1013.5
20260510084633 15 80 1.6 4.8 0.00 0.00 0.00 26 1013.3
20260510083127 16 263 0.0 4.8 0.00 0.00 0.00 25 1013.2
20260510081657 17 256 0.0 1.6 0.00 0.00 0.00 22 1013.2
20260510080126 17 131 0.0 4.8 0.00 0.00 0.00 21 1013.1
20260510074621 16 124 0.0 0.0 0.00 0.00 0.00 22 1013.2
20260510073130 17 293 0.0 3.2 0.00 0.00 0.00 21 1013.7
20260510071624 18 73 4.8 8.0 0.00 0.00 0.00 19 1013.7
20260510070135 19 114 1.6 4.8 0.00 0.00 0.00 18 1013.4
20260510064624 20 250 1.6 3.2 0.00 0.00 0.00 17 1013.6
20260510063140 21 168 1.6 6.4 0.00 0.00 0.00 15 1013.3
20260510061630 21 159 3.2 6.4 0.00 0.00 0.00 15 1013.3
20260510060146 22 159 3.2 6.4 0.00 0.00 0.00 14 1013.3
20260510054635 23 135 6.4 11.3 0.00 0.00 0.00 13 1013.3
20260510053145 23 118 8.0 11.3 0.00 0.00 0.00 12 1013.3
20260510051623 23 130 4.8 9.7 0.00 0.00 0.00 11 1013.3
20260510050133 24 135 4.8 11.3 0.00 0.00 0.00 11 1013.3
20260510044626 24 126 6.4 9.7 0.00 0.00 0.00 12 1013.5
20260510043137 24 135 3.2 11.3 0.00 0.00 0.00 12 1013.4
20260510041631 23 144 6.4 9.7 0.00 0.00 0.00 13 1013.4
20260510040141 23 144 3.2 8.0 0.00 0.00 0.00 13 1013.3
20260510034629 23 132 3.2 9.7 0.00 0.00 0.00 12 1013.1
20260510031622 22 119 3.2 6.4 0.00 0.00 0.00 14 1012.9
20260510030155 23 135 1.6 6.4 0.00 0.00 0.00 13 1012.8
20260510024627 24 125 3.2 6.4 0.00 0.00 0.00 12 1012.7
20260510023137 25 104 6.4 8.0 0.00 0.00 0.00 12 1012.3
20260510021630 26 112 4.8 6.4 0.00 0.00 0.00 11 1012.3
20260510020140 27 128 3.2 6.4 0.00 0.00 0.00 11 1012.2
20260510014629 28 122 3.2 6.4 0.00 0.00 0.00 9 1012.2
20260510013123 28 149 3.2 6.4 0.00 0.00 0.00 9 1012.0
20260510011631 30 116 1.6 9.7 0.00 0.00 0.00 9 1012.0
20260510010125 31 144 3.2 8.0 0.00 0.00 0.00 9 1011.9
20260510004635 31 114 6.4 9.7 0.00 0.00 0.00 9 1012.0
20260510003128 31 109 4.8 9.7 0.00 0.00 0.00 9 1012.1
20260510001659 32 101 6.4 11.3 0.00 0.00 0.00 9 1012.1
20260510000125 32 162 1.6 11.3 0.00 0.00 0.00 9 1012.3
20260509234639 32 132 1.6 11.3 0.00 0.00 0.00 9 1012.3
20260509233127 32 229 4.8 12.9 0.00 0.00 0.00 9 1012.6
20260509231621 32 152 1.6 6.4 0.00 0.00 0.00 9 1012.7
20260509230152 32 236 6.4 9.7 0.00 0.00 0.00 9 1012.8